Location: Ch�teau-Arnoux
(44.0814°N, 6.0027°E)
Time: 04:11:43
(UTC+00:00)

Meteor 1-27 - Pass Details

Date: 15 November 2019
Orbit: 839 x 891 km, 81.3° (Epoch: 05 December)

Event Time Altitude Azimuth Distance (km) Brightness Sun altitude
Exits shadow 04:20:42 37° 324° (NW) 1,356 4.9 -23.3°
Maximum altitude 04:22:49 57° 265° (W) 1,041 4.3 -22.9°
Drops below altitude 10° 04:28:30 10° 188° (S) 2,550 6.7 -21.9°
Sets 04:30:58 0° 184° (S) 3,483 7.4 -21.5°
